Time,TemperatureF,DewpointF,PressureIn,WindDirection,WindDirectionDegrees,WindSpeedMPH,WindSpeedGustMPH,Humidity,HourlyPrecipIn,Conditions,Clouds,dailyrainin,SoftwareType,DateUTC
2013-05-14 00:09:00,38.1,36.0,30.02,SSW,194,0.0,1.0,91,0.00,,,0.00,weatherlink.com 1.10,2013-05-14 04:09:00,
2013-05-14 00:24:00,38.2,36.0,30.02,SE,146,0.0,1.0,93,0.00,,,0.00,weatherlink.com 1.10,2013-05-14 04:24:00,
2013-05-14 00:39:00,37.8,36.0,30.02,East,99,0.0,2.0,92,0.00,,,0.00,weatherlink.com 1.10,2013-05-14 04:39:00,
2013-05-14 00:54:00,37.9,36.0,30.01,East,99,0.0,0.0,93,0.00,,,0.00,weatherlink.com 1.10,2013-05-14 04:54:00,
2013-05-14 01:09:00,37.5,36.0,30.01,East,99,0.0,2.0,93,0.00,,,0.00,weatherlink.com 1.10,2013-05-14 05:09:00,
2013-05-14 01:24:00,37.4,36.0,30.01,East,99,0.0,0.0,94,0.00,,,0.00,weatherlink.com 1.10,2013-05-14 05:24:00,
2013-05-14 01:39:00,36.8,35.0,30.00,East,99,0.0,1.0,94,0.00,,,0.00,weatherlink.com 1.10,2013-05-14 05:39:00,
2013-05-14 01:54:00,36.2,35.0,30.01,East,99,0.0,1.0,94,0.00,,,0.00,weatherlink.com 1.10,2013-05-14 05:54:00,
2013-05-14 02:09:00,35.6,34.0,30.00,East,99,0.0,0.0,93,0.00,,,0.00,weatherlink.com 1.10,2013-05-14 06:09:00,
2013-05-14 02:24:00,35.1,34.0,30.01,East,99,0.0,0.0,94,0.00,,,0.00,weatherlink.com 1.10,2013-05-14 06:24:00,
2013-05-14 02:39:00,34.4,33.0,30.01,East,94,1.0,2.0,94,0.00,,,0.00,weatherlink.com 1.10,2013-05-14 06:39:00,
2013-05-14 02:54:00,34.2,33.0,30.01,East,94,0.0,1.0,95,0.00,,,0.00,weatherlink.com 1.10,2013-05-14 06:54:00,
2013-05-14 03:09:00,33.4,32.0,30.02,East,94,0.0,2.0,94,0.00,,,0.00,weatherlink.com 1.10,2013-05-14 07:09:00,
2013-05-14 03:25:00,33.3,32.0,30.02,East,94,0.0,3.0,95,0.00,,,0.00,weatherlink.com 1.10,2013-05-14 07:25:00,
2013-05-14 03:40:00,33.3,32.0,30.02,East,94,0.0,3.0,95,0.00,,,0.00,weatherlink.com 1.10,2013-05-14 07:40:00,
2013-05-14 03:55:00,33.0,32.0,30.02,East,94,1.0,2.0,95,0.00,,,0.00,weatherlink.com 1.10,2013-05-14 07:55:00,
2013-05-14 04:10:00,32.6,31.0,30.02,East,94,1.0,2.0,95,0.00,,,0.00,weatherlink.com 1.10,2013-05-14 08:10:00,
2013-05-14 04:25:00,32.8,32.0,30.02,East,94,0.0,1.0,95,0.00,,,0.00,weatherlink.com 1.10,2013-05-14 08:25:00,
2013-05-14 04:40:00,32.9,32.0,30.03,East,94,0.0,0.0,95,0.00,,,0.00,weatherlink.com 1.10,2013-05-14 08:40:00,
2013-05-14 04:55:00,33.0,32.0,30.03,East,94,1.0,2.0,95,0.00,,,0.00,weatherlink.com 1.10,2013-05-14 08:55:00,
2013-05-14 05:10:00,33.3,32.0,30.04,East,94,0.0,0.0,96,0.00,,,0.00,weatherlink.com 1.10,2013-05-14 09:10:00,
2013-05-14 05:25:00,33.4,32.0,30.04,East,94,0.0,1.0,95,0.00,,,0.00,weatherlink.com 1.10,2013-05-14 09:25:00,
2013-05-14 05:40:00,33.3,32.0,30.04,East,94,0.0,1.0,95,0.00,,,0.00,weatherlink.com 1.10,2013-05-14 09:40:00,
2013-05-14 05:55:00,33.2,32.0,30.05,East,94,0.0,0.0,95,0.00,,,0.00,weatherlink.com 1.10,2013-05-14 09:55:00,
2013-05-14 06:10:00,33.4,32.0,30.05,East,94,0.0,0.0,96,0.00,,,0.00,weatherlink.com 1.10,2013-05-14 10:10:00,
2013-05-14 06:25:00,34.4,33.0,30.06,East,94,0.0,0.0,96,0.00,,,0.00,weatherlink.com 1.10,2013-05-14 10:25:00,
2013-05-14 06:40:00,35.3,35.0,30.06,East,94,0.0,2.0,97,0.00,,,0.00,weatherlink.com 1.10,2013-05-14 10:40:00,
2013-05-14 06:55:00,35.7,35.0,30.07,East,94,0.0,0.0,96,0.00,,,0.00,weatherlink.com 1.10,2013-05-14 10:55:00,
2013-05-14 07:10:00,36.2,35.0,30.07,East,94,0.0,0.0,96,0.00,,,0.00,weatherlink.com 1.10,2013-05-14 11:10:00,
2013-05-14 07:25:00,36.8,36.0,30.07,East,94,0.0,0.0,96,0.00,,,0.00,weatherlink.com 1.10,2013-05-14 11:25:00,
2013-05-14 07:40:00,37.3,36.0,30.07,East,94,0.0,1.0,95,0.00,,,0.00,weatherlink.com 1.10,2013-05-14 11:40:00,
2013-05-14 07:55:00,38.9,38.0,30.08,East,94,0.0,1.0,95,0.00,,,0.00,weatherlink.com 1.10,2013-05-14 11:55:00,
2013-05-14 08:10:00,43.1,40.0,30.07,SSW,195,3.0,3.0,90,0.00,,,0.00,weatherlink.com 1.10,2013-05-14 12:10:00,
2013-05-14 08:25:00,45.9,33.0,30.07,SW,224,3.0,7.0,62,0.00,,,0.00,weatherlink.com 1.10,2013-05-14 12:25:00,
2013-05-14 08:40:00,46.6,31.0,30.07,SSE,154,0.0,7.0,55,0.00,,,0.00,weatherlink.com 1.10,2013-05-14 12:40:00,
2013-05-14 08:55:00,47.6,33.0,30.07,SW,214,2.0,9.0,57,0.00,,,0.00,weatherlink.com 1.10,2013-05-14 12:55:00,
2013-05-14 09:10:00,48.8,32.0,30.07,South,182,3.0,7.0,53,0.00,,,0.00,weatherlink.com 1.10,2013-05-14 13:10:00,
2013-05-14 09:25:00,49.7,33.0,30.06,SW,227,1.0,9.0,54,0.00,,,0.00,weatherlink.com 1.10,2013-05-14 13:25:00,
2013-05-14 09:40:00,51.3,31.0,30.06,SW,227,2.0,7.0,47,0.00,,,0.00,weatherlink.com 1.10,2013-05-14 13:40:00,
2013-05-14 09:55:00,52.2,33.0,30.05,South,184,1.0,8.0,49,0.00,,,0.00,weatherlink.com 1.10,2013-05-14 13:55:00,
2013-05-14 10:10:00,52.1,33.0,30.05,SW,229,2.0,7.0,48,0.00,,,0.00,weatherlink.com 1.10,2013-05-14 14:10:00,
2013-05-14 10:25:00,52.5,35.0,30.05,SSW,194,3.0,10.0,52,0.00,,,0.00,weatherlink.com 1.10,2013-05-14 14:25:00,
2013-05-14 10:40:00,55.7,36.0,30.04,SW,214,3.0,10.0,47,0.00,,,0.00,weatherlink.com 1.10,2013-05-14 14:40:00,
2013-05-14 10:55:00,54.3,34.0,30.04,SW,227,1.0,7.0,47,0.00,,,0.00,weatherlink.com 1.10,2013-05-14 14:55:00,
2013-05-14 11:10:00,55.6,38.0,30.04,WSW,242,2.0,11.0,51,0.00,,,0.00,weatherlink.com 1.10,2013-05-14 15:10:00,
2013-05-14 11:25:00,53.7,31.0,30.04,NNE,22,2.0,5.0,43,0.00,,,0.00,weatherlink.com 1.10,2013-05-14 15:25:00,
2013-05-14 11:41:00,56.3,38.0,30.03,SW,219,0.0,6.0,50,0.00,,,0.00,weatherlink.com 1.10,2013-05-14 15:41:00,
2013-05-14 11:55:00,55.7,32.0,30.03,SW,229,0.0,8.0,41,0.00,,,0.00,weatherlink.com 1.10,2013-05-14 15:55:00,
2013-05-14 12:10:00,56.3,37.0,30.03,West,261,1.0,5.0,49,0.00,,,0.00,weatherlink.com 1.10,2013-05-14 16:10:00,
2013-05-14 12:26:00,58.5,36.0,30.02,SSW,200,0.0,9.0,43,0.00,,,0.00,weatherlink.com 1.10,2013-05-14 16:26:00,
2013-05-14 12:41:00,57.3,32.0,30.03,SW,236,4.0,11.0,39,0.00,,,0.00,weatherlink.com 1.10,2013-05-14 16:41:00,
2013-05-14 12:56:00,57.2,31.0,30.03,WSW,249,0.0,9.0,37,0.00,,,0.00,weatherlink.com 1.10,2013-05-14 16:56:00,
2013-05-14 13:11:00,57.3,35.0,30.03,South,181,3.0,15.0,43,0.00,,,0.00,weatherlink.com 1.10,2013-05-14 17:11:00,
2013-05-14 13:26:00,55.5,31.0,30.02,SSW,205,2.0,8.0,40,0.00,,,0.00,weatherlink.com 1.10,2013-05-14 17:26:00,
2013-05-14 13:41:00,55.9,32.0,30.02,WSW,248,5.0,10.0,40,0.00,,,0.00,weatherlink.com 1.10,2013-05-14 17:41:00,
2013-05-14 13:56:00,57.8,32.0,30.02,SW,220,1.0,11.0,38,0.00,,,0.00,weatherlink.com 1.10,2013-05-14 17:56:00,
2013-05-14 14:11:00,55.1,30.0,30.01,SSW,207,2.0,11.0,39,0.00,,,0.00,weatherlink.com 1.10,2013-05-14 18:11:00,
2013-05-14 14:26:00,54.3,30.0,30.01,South,190,4.0,9.0,40,0.00,,,0.00,weatherlink.com 1.10,2013-05-14 18:26:00,
2013-05-14 14:41:00,53.8,33.0,30.01,WSW,239,4.0,8.0,45,0.00,,,0.00,weatherlink.com 1.10,2013-05-14 18:41:00,
2013-05-14 14:56:00,53.7,32.0,30.00,SW,229,1.0,7.0,44,0.00,,,0.00,weatherlink.com 1.10,2013-05-14 18:56:00,
2013-05-14 15:11:00,54.1,31.0,30.00,South,188,0.0,6.0,41,0.00,,,0.00,weatherlink.com 1.10,2013-05-14 19:11:00,
2013-05-14 15:26:00,54.6,33.0,30.00,NNW,346,3.0,5.0,44,0.00,,,0.00,weatherlink.com 1.10,2013-05-14 19:26:00,
2013-05-14 15:41:00,57.4,34.0,29.99,SSW,207,4.0,7.0,41,0.00,,,0.00,weatherlink.com 1.10,2013-05-14 19:41:00,
2013-05-14 15:56:00,55.1,30.0,29.99,ESE,121,0.0,4.0,38,0.00,,,0.00,weatherlink.com 1.10,2013-05-14 19:56:00,
2013-05-14 16:11:00,55.6,33.0,29.98,WNW,285,3.0,9.0,43,0.00,,,0.00,weatherlink.com 1.10,2013-05-14 20:11:00,
2013-05-14 16:26:00,54.6,31.0,29.98,SSW,193,1.0,6.0,41,0.00,,,0.00,weatherlink.com 1.10,2013-05-14 20:26:00,
2013-05-14 16:41:00,56.8,31.0,29.97,SSW,211,1.0,8.0,37,0.00,,,0.00,weatherlink.com 1.10,2013-05-14 20:41:00,
2013-05-14 16:56:00,58.2,31.0,29.97,SSE,156,1.0,7.0,36,0.00,,,0.00,weatherlink.com 1.10,2013-05-14 20:56:00,
2013-05-14 17:11:00,58.0,33.0,29.97,SSW,201,2.0,5.0,39,0.00,,,0.00,weatherlink.com 1.10,2013-05-14 21:11:00,
2013-05-14 17:26:00,58.7,34.0,29.97,SSW,207,0.0,5.0,40,0.00,,,0.00,weatherlink.com 1.10,2013-05-14 21:26:00,
2013-05-14 17:41:00,56.9,31.0,29.96,SSW,199,3.0,7.0,37,0.00,,,0.00,weatherlink.com 1.10,2013-05-14 21:41:00,
2013-05-14 17:56:00,55.1,30.0,29.96,SSW,201,4.0,6.0,38,0.00,,,0.00,weatherlink.com 1.10,2013-05-14 21:56:00,
2013-05-14 18:11:00,53.6,27.0,29.96,SSW,200,1.0,3.0,36,0.00,,,0.00,weatherlink.com 1.10,2013-05-14 22:11:00,
2013-05-14 18:26:00,52.5,32.0,29.96,SSE,161,0.0,7.0,45,0.00,,,0.00,weatherlink.com 1.10,2013-05-14 22:26:00,
2013-05-14 18:41:00,51.4,30.0,29.96,SE,146,0.0,8.0,44,0.00,,,0.00,weatherlink.com 1.10,2013-05-14 22:41:00,
2013-05-14 18:56:00,50.4,31.0,29.96,SE,144,0.0,4.0,48,0.00,,,0.00,weatherlink.com 1.10,2013-05-14 22:56:00,
2013-05-14 19:11:00,49.1,31.0,29.96,SSE,159,0.0,1.0,50,0.00,,,0.00,weatherlink.com 1.10,2013-05-14 23:11:00,
2013-05-14 19:26:00,47.8,31.0,29.97,SSE,159,0.0,1.0,53,0.00,,,0.00,weatherlink.com 1.10,2013-05-14 23:26:00,
2013-05-14 19:41:00,47.2,31.0,29.97,SSE,157,0.0,1.0,53,0.00,,,0.00,weatherlink.com 1.10,2013-05-14 23:41:00,
2013-05-14 19:56:00,46.7,31.0,29.98,SSE,157,0.0,1.0,55,0.00,,,0.00,weatherlink.com 1.10,2013-05-14 23:56:00,
2013-05-14 20:11:00,45.9,30.0,29.98,SSE,157,0.0,0.0,54,0.00,,,0.00,weatherlink.com 1.10,2013-05-15 00:11:00,
2013-05-14 20:26:00,44.3,31.0,29.98,ESE,105,2.0,2.0,59,0.00,,,0.00,weatherlink.com 1.10,2013-05-15 00:26:00,
2013-05-14 20:41:00,43.2,31.0,29.98,ENE,72,1.0,3.0,63,0.00,,,0.00,weatherlink.com 1.10,2013-05-15 00:41:00,
2013-05-14 20:56:00,42.4,31.0,29.99,ENE,61,2.0,4.0,65,0.00,,,0.00,weatherlink.com 1.10,2013-05-15 00:56:00,
2013-05-14 21:11:00,41.0,32.0,30.00,ENE,63,2.0,3.0,69,0.00,,,0.00,weatherlink.com 1.10,2013-05-15 01:11:00,
2013-05-14 21:26:00,40.0,32.0,30.01,ENE,64,2.0,4.0,72,0.00,,,0.00,weatherlink.com 1.10,2013-05-15 01:26:00,
2013-05-14 21:41:00,39.8,31.0,30.01,ENE,68,1.0,4.0,72,0.00,,,0.00,weatherlink.com 1.10,2013-05-15 01:41:00,
2013-05-14 21:56:00,38.8,31.0,30.01,ENE,60,2.0,3.0,74,0.00,,,0.00,weatherlink.com 1.10,2013-05-15 01:56:00,
2013-05-14 22:11:00,38.1,32.0,30.01,NE,56,2.0,4.0,77,0.00,,,0.00,weatherlink.com 1.10,2013-05-15 02:11:00,
2013-05-14 22:26:00,38.1,32.0,30.01,ENE,57,1.0,3.0,77,0.00,,,0.00,weatherlink.com 1.10,2013-05-15 02:26:00,
2013-05-14 22:41:00,37.8,32.0,30.01,ENE,57,2.0,4.0,79,0.00,,,0.00,weatherlink.com 1.10,2013-05-15 02:41:00,
2013-05-14 22:56:00,37.6,32.0,30.01,ENE,57,2.0,3.0,80,0.00,,,0.00,weatherlink.com 1.10,2013-05-15 02:56:00,
2013-05-14 23:11:00,37.1,31.0,30.01,ENE,57,2.0,3.0,80,0.00,,,0.00,weatherlink.com 1.10,2013-05-15 03:11:00,
2013-05-14 23:26:00,37.0,32.0,30.01,ENE,57,3.0,3.0,81,0.00,,,0.00,weatherlink.com 1.10,2013-05-15 03:26:00,
2013-05-14 23:41:00,36.4,31.0,30.01,ENE,65,2.0,4.0,82,0.00,,,0.00,weatherlink.com 1.10,2013-05-15 03:41:00,
2013-05-14 23:56:00,36.5,31.0,30.01,NE,53,2.0,5.0,81,0.00,,,0.00,weatherlink.com 1.10,2013-05-15 03:56:00,